Temperatura - Umidità - Pioggia orarie del 19-04-2021

Intensità - Direzione vento orarie del 19-04-2021

Dati orari da stazione meteo del 19-04-2021

Nome Stazione Data Ora Temperatura [°C] Umidità [%] Pioggia [mm] Intensità vento[km/h] Direzione vento [°]
Savigliano 18-04-2021 02:00 4.4 78.9 0 0 179
Savigliano 18-04-2021 03:00 4.3 78 0 0 159
Savigliano 18-04-2021 04:00 4.3 78.5 0 0 152
Savigliano 18-04-2021 05:00 3.8 84.1 0 0 153
Savigliano 18-04-2021 06:00 3.1 82.8 0 0 172
Savigliano 18-04-2021 07:00 3.5 79.7 0 0 168
Savigliano 18-04-2021 08:00 4.4 79.7 0 0 156
Savigliano 18-04-2021 09:00 6.2 73.2 0 0 182
Savigliano 18-04-2021 10:00 7.3 72.4 0 0 154
Savigliano 18-04-2021 11:00 10.3 58.4 0 0 188
Savigliano 18-04-2021 12:00 12 51.6 0 0 134
Savigliano 18-04-2021 13:00 12.1 51.7 0 0 112
Savigliano 18-04-2021 14:00 12.4 51 0 0 107
Savigliano 18-04-2021 15:00 13.4 44.9 0 0 159
Savigliano 18-04-2021 16:00 12.1 50 0 0 240
Savigliano 18-04-2021 17:00 14.2 44.4 0 0 203
Savigliano 18-04-2021 18:00 14.6 44.7 0 0 210
Savigliano 18-04-2021 19:00 14.5 43.6 0 0 268
Savigliano 18-04-2021 20:00 9.8 61.8 0 0 236
Savigliano 18-04-2021 21:00 9.6 66.1 0 0 231
Savigliano 18-04-2021 22:00 9.2 66 0 0 228
Savigliano 18-04-2021 23:00 8.2 69.4 0 0 132
Savigliano 19-04-2021 00:00 7.1 75.1 0 0 68
Savigliano 19-04-2021 01:00 7.1 75.1 0 0 210
Savigliano 19-04-2021 02:00 7 78.5 0 0 291
Savigliano 19-04-2021 03:00 6.8 81.7 0 0 302
Savigliano 19-04-2021 04:00 7.3 83.5 0 0 311
Savigliano 19-04-2021 05:00 7.3 80.2 0 0 310
Savigliano 19-04-2021 06:00 7.1 79.2 0 0 307
Savigliano 19-04-2021 07:00 4.9 83.7 0 0 243
Savigliano 19-04-2021 08:00 4.1 84.3 0 0 236
Savigliano 19-04-2021 09:00 7.1 81.7 0 0 224
Savigliano 19-04-2021 10:00 10 71.1 0 0 67
Savigliano 19-04-2021 11:00 12.2 64.1 0 0 98
Savigliano 19-04-2021 12:00 12.4 55.4 0 0 105
Savigliano 19-04-2021 13:00 13.4 51.5 0 0 151
Savigliano 19-04-2021 14:00 14.4 46.1 0 0 140
Savigliano 19-04-2021 15:00 15.2 37.2 0 0 188
Savigliano 19-04-2021 16:00 14.9 35.8 0 1.8 125
Savigliano 19-04-2021 17:00 15.2 35.5 0 0 176
Savigliano 19-04-2021 18:00 15.2 36.5 0 0 142
Savigliano 19-04-2021 19:00 14.6 36.1 0 0 148
Savigliano 19-04-2021 20:00 14.9 36.3 0 0 145
Savigliano 18-04-2021 02:35 0 0 0.1 0 0
Savigliano 18-04-2021 19:05 0 0 0.1 0 0
Savigliano 18-04-2021 19:10 0 0 0.7 0 0
Savigliano 18-04-2021 19:15 0 0 0.2 0 0
Savigliano 18-04-2021 19:20 0 0 0.8 0 0
Savigliano 18-04-2021 11:20 0 0 0 0 165
Savigliano 18-04-2021 19:40 0 0 0 0 183
Savigliano 19-04-2021 11:20 0 0 0 0 222
Savigliano 19-04-2021 19:40 0 0 0 0 145

Riassuntivo giornaliero del 19-04-2021